Regional Weather Roundup
Issued by NWS

Home | Current Version | Previous Version | Graphics & Text | Print | Product List | Glossary On
Versions: 1 2 3 4 5 6 7 8 9 10 11 12 13 14 15 16 17 18 19 20 21 22 23 24 25 26 27 28 29 30 31 32 33 34 35 36 37 38 39 40 41 42 43 44 45 46 47 48 49 50
000
ASUS43 KLMK 231402
RWRKY
KENTUCKY REGIONAL WEATHER ROUNDUP
NATIONAL WEATHER SERVICE LOUISVILLE KY
1000 AM EDT SAT MAY 23 2015

NOTE "FAIR" INDICATES FEW OR NO CLOUDS BELOW 12,000 FEET
WITH NO SIGNIFICANT WEATHER AND/OR OBSTRUCTIONS TO VISIBILITY.

KYZ001>023-026-027-061>063-070>075-231500-
WESTERN AND SOUTH CENTRAL KENTUCKY

CITY           SKY/WX    TMP DP  RH WIND       PRES   REMARKS
PADUCAH        PTSUNNY   67  54  63 E9        30.33S
HENDERSON      CLOUDY    64  55  72 E3        30.36R
OWENSBORO      CLOUDY    66  55  67 SE7       30.37S
HOPKINSVILLE   CLOUDY    63  53  70 E7        30.36S
BOWLING GREEN  CLOUDY    67  54  63 E6        30.39R
GLASGOW        NOT AVBL
$$

KYZ024-025-028>034-038-045-046-053-231500-
NORTH CENTRAL KENTUCKY

CITY           SKY/WX    TMP DP  RH WIND       PRES   REMARKS
LOUISVILLE/SDF PTSUNNY   66  53  63 CALM      30.39R
LOUISVILLE/LOU PTSUNNY   65  52  62 CALM      30.40R
FORT KNOX      PTSUNNY   66  52  60 E3        30.38S
$$

KYZ035>037-039>044-047>052-055>060-089>105-231500-
NORTHEAST KENTUCKY

CITY           SKY/WX    TMP DP  RH WIND       PRES   REMARKS
LEXINGTON      PTSUNNY   66  53  63 SE5       30.40S
COVINGTON      PTSUNNY   65  51  60 SE6       30.39S
FRANKFORT      CLOUDY    63  51  65 SE3       30.38S
$$

KYZ054-064>069-076>088-106>120-231500-
SOUTHEAST KENTUCKY

CITY           SKY/WX    TMP DP  RH WIND       PRES   REMARKS
JACKSON        PTSUNNY   63  50  62 CALM      30.43R
LONDON         SUNNY     66  46  48 CALM      30.42R
SOMERSET       NOT AVBL
MIDDLESBORO    NOT AVBL
MONTICELLO     SUNNY     69  48  46 E9        30.44R
$$




USA.gov is the U.S. government's official web portal to all federal, state and local government web resources and services.